EW6308 Weather Reports


time (UTC)temp
C
wind
direction
speed
KPH
gust
KPH
rain 1hr
cm
rain 24hr
cm
rain mn
cm
humidity
%
barometer
mb
20260505171539 26 214 14.5 25.7 0.00 0.00 0.00 74 1009.8
20260505171036 25 176 17.7 22.5 0.00 0.00 0.00 75 1009.6
20260505170533 25 212 19.3 30.6 0.00 0.00 0.00 75 1009.6
20260505170029 25 229 11.3 22.5 0.00 0.00 0.00 76 1009.7
20260505165525 25 157 6.4 16.1 0.00 0.00 0.00 76 1009.7
20260505165020 25 250 8.0 16.1 0.00 0.00 0.00 76 1009.6
20260505164517 25 204 12.9 17.7 0.00 0.00 0.00 77 1009.7
20260505164015 25 166 9.7 24.1 0.00 0.00 0.00 77 1009.6
20260505163513 25 198 11.3 14.5 0.00 0.00 0.00 77 1009.7
20260505163010 25 170 19.3 27.4 0.00 0.00 0.00 78 1009.7
20260505162503 25 212 12.9 20.9 0.00 0.00 0.00 78 1009.7
20260505162000 24 253 11.3 25.7 0.00 0.00 0.00 79 1009.6
20260505161456 24 209 14.5 24.1 0.00 0.00 0.00 80 1009.7
20260505160953 24 144 12.9 22.5 0.00 0.00 0.00 80 1009.9
20260505160452 24 214 11.3 20.9 0.00 0.00 0.00 81 1009.8
20260505152928 23 165 11.3 22.5 0.00 0.00 0.00 83 1010.0
20260505152426 23 215 17.7 27.4 0.00 0.00 0.00 83 1009.8
20260505151925 23 190 4.8 24.1 0.00 0.00 0.00 83 1009.8
20260505151421 23 213 17.7 25.7 0.00 0.00 0.00 83 1009.9
20260505150919 23 181 8.0 22.5 0.00 0.00 0.00 83 1009.8
20260505150416 23 184 12.9 16.1 0.00 0.00 0.00 83 1009.7
20260505140346 22 192 12.9 17.7 0.00 0.00 0.00 85 1009.6
20260505130309 21 194 8.0 12.9 0.00 0.00 0.00 86 1009.3
20260505124759 21 182 17.7 22.5 0.00 0.00 0.00 86 1009.1
20260505124256 21 253 11.3 17.7 0.00 0.00 0.00 86 1008.9
20260505123752 21 107 8.0 14.5 0.00 0.00 0.00 86 1009.0
20260505123249 21 222 6.4 14.5 0.00 0.00 0.00 86 1008.6
20260505122745 21 192 9.7 22.5 0.00 0.00 0.00 86 1008.6
20260505122242 21 191 9.7 20.9 0.00 0.00 0.00 86 1008.7
20260505121739 21 195 14.5 22.5 0.00 0.00 0.00 86 1008.6
20260505121236 21 196 8.0 14.5 0.00 0.00 0.00 86 1008.4
20260505120732 21 205 11.3 22.5 0.00 0.00 0.00 85 1008.4
20260505120228 21 200 8.0 17.7 0.00 0.00 0.00 85 1008.3
20260505115727 21 208 9.7 16.1 0.00 0.00 0.00 85 1008.6
20260505115225 21 210 11.3 16.1 0.00 0.00 0.00 86 1008.2
20260505114722 21 206 4.8 20.9 0.00 0.00 0.00 85 1008.3
20260505114218 21 190 4.8 20.9 0.00 0.00 0.00 85 1008.2
20260505113715 21 220 8.0 20.9 0.00 0.00 0.00 85 1008.2
20260505113211 21 156 9.7 16.1 0.00 0.00 0.00 85 1008.2
20260505112708 21 201 12.9 16.1 0.00 0.00 0.00 86 1008.2
20260505112206 21 191 9.7 12.9 0.00 0.00 0.00 86 1008.5
20260505111705 21 200 4.8 9.7 0.00 0.00 0.00 86 1008.1
20260505111201 21 215 9.7 14.5 0.00 0.00 0.00 86 1008.4
20260505110657 21 210 14.5 22.5 0.00 0.00 0.00 86 1008.5
20260505110155 21 200 6.4 14.5 0.00 0.00 0.00 86 1008.4
20260505102131 21 181 17.7 24.1 0.00 0.00 0.00 86 1008.5
20260505101629 21 177 14.5 17.7 0.00 0.00 0.00 86 1008.6
20260505101125 21 225 6.4 17.7 0.00 0.00 0.00 86 1008.5
20260505100621 21 210 12.9 20.9 0.00 0.00 0.00 86 1008.2
20260505100119 21 166 9.7 20.9 0.00 0.00 0.00 86 1008.1
20260505095614 21 195 9.7 16.1 0.00 0.00 0.00 86 1008.4
20260505095111 21 206 9.7 12.9 0.00 0.00 0.00 85 1008.4
20260505094608 21 230 8.0 22.5 0.00 0.00 0.00 85 1008.5
20260505094104 21 171 9.7 14.5 0.00 0.00 0.00 86 1008.5
20260505093600 21 245 6.4 22.5 0.00 0.00 0.00 86 1008.5
20260505093058 21 198 12.9 16.1 0.00 0.00 0.00 86 1008.4
20260505092555 21 245 8.0 14.5 0.00 0.00 0.00 86 1008.6
20260505092054 21 166 8.0 12.9 0.00 0.00 0.00 85 1008.6
20260505091550 21 180 11.3 17.7 0.00 0.00 0.00 85 1008.6
20260505091049 21 231 17.7 20.9 0.00 0.00 0.00 85 1008.6
20260505090546 21 196 6.4 17.7 0.00 0.00 0.00 85 1008.6
20260505090044 21 175 16.1 20.9 0.00 0.00 0.00 85 1008.7
20260505085541 21 190 6.4 25.7 0.00 0.00 0.00 85 1008.5
20260505085039 21 197 9.7 25.7 0.00 0.00 0.00 85 1008.4
20260505084537 21 164 9.7 24.1 0.00 0.00 0.00 85 1008.4
20260505084035 21 227 14.5 17.7 0.00 0.00 0.00 85 1008.5
20260505083532 21 199 16.1 24.1 0.00 0.00 0.00 85 1008.6
20260505083028 21 150 16.1 24.1 0.00 0.00 0.00 85 1008.6
20260505082524 21 237 11.3 16.1 0.00 0.00 0.00 85 1008.7
20260505082021 21 175 16.1 25.7 0.00 0.00 0.00 85 1008.8
20260505081518 21 181 9.7 27.4 0.00 0.00 0.00 85 1008.9
20260505081015 21 199 12.9 20.9 0.00 0.00 0.00 85 1009.0
20260505080511 21 191 9.7 11.3 0.00 0.00 0.00 85 1009.0
20260505080007 21 244 14.5 25.7 0.00 0.00 0.00 84 1009.2
20260505075504 21 197 14.5 20.9 0.00 0.00 0.00 84 1009.1
20260505075000 21 147 14.5 25.7 0.00 0.00 0.00 84 1009.4
20260505074458 21 174 8.0 27.4 0.00 0.00 0.00 84 1009.4
20260505073955 21 171 8.0 25.7 0.00 0.00 0.00 84 1009.4
20260505073452 21 191 9.7 24.1 0.00 0.00 0.00 84 1009.6
20260505072950 21 180 14.5 22.5 0.00 0.00 0.00 84 1009.7
20260505072446 21 195 11.3 16.1 0.00 0.00 0.00 84 1009.9
20260505071942 21 147 9.7 17.7 0.00 0.00 0.00 84 1009.8
20260505071438 21 212 8.0 16.1 0.00 0.00 0.00 84 1009.7
20260505070936 21 150 9.7 20.9 0.00 0.00 0.00 84 1010.0
20260505070433 21 201 9.7 20.9 0.00 0.00 0.00 84 1010.0
20260505065928 21 162 9.7 17.7 0.00 0.00 0.00 84 1010.1
20260505065425 21 221 12.9 20.9 0.00 0.00 0.00 84 1010.1
20260505064922 21 199 11.3 16.1 0.00 0.00 0.00 84 1010.0
20260505064419 21 202 6.4 16.1 0.00 0.00 0.00 84 1010.0
20260505063917 21 161 9.7 16.1 0.00 0.00 0.00 84 1010.1
20260505063413 21 210 6.4 14.5 0.00 0.00 0.00 84 1010.4
20260505062910 21 167 3.2 12.9 0.00 0.00 0.00 84 1010.5
20260505062407 21 195 8.0 16.1 0.00 0.00 0.00 83 1010.3
20260505061904 21 198 6.4 22.5 0.00 0.00 0.00 83 1010.4
20260505061402 21 198 6.4 16.1 0.00 0.00 0.00 83 1010.3
20260505060859 21 183 16.1 20.9 0.00 0.00 0.00 83 1010.4
20260505060356 21 211 8.0 22.5 0.00 0.00 0.00 83 1010.3
20260505055852 21 229 9.7 17.7 0.00 0.00 0.00 83 1010.5
20260505055348 21 200 9.7 12.9 0.00 0.00 0.00 83 1010.6
20260505054845 21 145 3.2 11.3 0.00 0.00 0.00 83 1010.7
20260505054343 21 210 8.0 11.3 0.00 0.00 0.00 83 1010.9
20260505053841 21 188 12.9 14.5 0.00 0.00 0.00 83 1010.5
20260505053337 21 174 8.0 12.9 0.00 0.00 0.00 82 1010.3
20260505052834 21 209 6.4 9.7 0.00 0.00 0.00 82 1010.3
20260505052331 21 201 11.3 20.9 0.00 0.00 0.00 82 1010.7
20260505051828 22 134 4.8 16.1 0.00 0.00 0.00 82 1010.4
20260505051325 22 186 8.0 14.5 0.00 0.00 0.00 81 1010.5
20260505050823 22 221 9.7 16.1 0.00 0.00 0.00 81 1010.6
20260505050322 22 215 8.0 16.1 0.00 0.00 0.00 81 1010.4
20260505041752 22 173 9.7 14.5 0.00 0.00 0.00 78 1010.4
20260505041249 22 191 4.8 20.9 0.00 0.00 0.00 78 1010.2
20260505040746 22 193 9.7 12.9 0.00 0.00 0.00 78 1010.3
20260505040244 22 181 12.9 17.7 0.00 0.00 0.00 77 1010.4
20260505035740 22 197 14.5 17.7 0.00 0.00 0.00 77 1010.2
20260505035236 22 175 6.4 12.9 0.00 0.00 0.00 77 1010.3
20260505034733 22 209 4.8 12.9 0.00 0.00 0.00 76 1010.4
20260505034230 23 174 6.4 17.7 0.00 0.00 0.00 76 1010.5
20260505033727 23 144 8.0 14.5 0.00 0.00 0.00 75 1010.4
20260505033225 23 214 11.3 16.1 0.00 0.00 0.00 75 1010.3
20260505032722 23 254 9.7 16.1 0.00 0.00 0.00 75 1010.3
20260505032218 23 155 6.4 12.9 0.00 0.00 0.00 75 1010.4
20260505031716 23 218 1.6 6.4 0.00 0.00 0.00 75 1010.3
20260505031212 23 195 4.8 9.7 0.00 0.00 0.00 74 1010.4
20260505030709 23 195 11.3 14.5 0.00 0.00 0.00 73 1010.5
20260505030205 23 171 8.0 14.5 0.00 0.00 0.00 73 1010.3
20260505025701 23 169 6.4 12.9 0.00 0.00 0.00 73 1010.1
20260505025159 23 177 6.4 14.5 0.00 0.00 0.00 72 1010.2
20260505024657 23 238 6.4 11.3 0.00 0.00 0.00 72 1010.1
20260505024154 23 195 9.7 14.5 0.00 0.00 0.00 72 1010.0
20260505023651 23 168 8.0 11.3 0.00 0.00 0.00 72 1009.9
20260505023149 23 223 9.7 11.3 0.00 0.00 0.00 71 1010.0
20260505022646 23 183 9.7 16.1 0.00 0.00 0.00 71 1009.8
20260505022143 23 165 9.7 14.5 0.00 0.00 0.00 71 1009.8
20260505021639 24 204 6.4 14.5 0.00 0.00 0.00 70 1009.8
20260505021136 24 170 4.8 16.1 0.00 0.00 0.00 70 1009.9
20260505020632 24 207 4.8 11.3 0.00 0.00 0.00 69 1009.8
20260505020128 24 210 4.8 16.1 0.00 0.00 0.00 69 1009.6
20260505015625 24 175 14.5 17.7 0.00 0.00 0.00 69 1009.3
20260505015122 24 157 12.9 17.7 0.00 0.00 0.00 69 1009.3
20260505014618 24 143 6.4 17.7 0.00 0.00 0.00 69 1009.3
20260505014116 24 177 9.7 16.1 0.00 0.00 0.00 69 1009.6
20260505013613 24 173 14.5 17.7 0.00 0.00 0.00 69 1009.6
20260505013110 24 166 9.7 12.9 0.00 0.00 0.00 69 1009.6
20260505012608 24 163 3.2 14.5 0.00 0.00 0.00 68 1009.6
20260505012105 25 195 9.7 17.7 0.00 0.00 0.00 68 1009.6
20260505011600 25 128 4.8 12.9 0.00 0.00 0.00 68 1009.6
20260505011058 25 193 3.2 17.7 0.00 0.00 0.00 67 1009.7
20260505010553 25 168 4.8 9.7 0.00 0.00 0.00 67 1009.7
20260505010050 25 176 11.3 14.5 0.00 0.00 0.00 66 1009.7
20260505005546 25 194 14.5 14.5 0.00 0.00 0.00 65 1009.5
20260505005044 25 176 6.4 22.5 0.00 0.00 0.00 65 1009.6
20260505004540 25 171 8.0 20.9 0.00 0.00 0.00 65 1009.8
20260505004037 25 149 6.4 17.7 0.00 0.00 0.00 64 1009.7
20260505003535 25 162 9.7 16.1 0.00 0.00 0.00 63 1009.6
20260505003032 26 200 14.5 17.7 0.00 0.00 0.00 63 1009.6
20260505002532 26 182 12.9 25.7 0.00 0.00 0.00 62 1009.7
20260505002031 26 191 14.5 24.1 0.00 0.00 0.00 62 1009.6
20260505001528 26 187 8.0 17.7 0.00 0.00 0.00 61 1009.6
20260505001025 26 189 9.7 22.5 0.00 0.00 0.00 61 1010.0
20260505000523 26 171 9.7 24.1 0.00 0.00 0.00 61 1009.9
20260505000020 26 199 11.3 24.1 0.00 0.00 0.00 60 1009.9
20260504235517 26 216 17.7 37.0 0.00 0.00 0.00 60 1009.6
20260504235013 26 155 9.7 24.1 0.00 0.00 0.00 60 1009.9
20260504234510 26 156 14.5 24.1 0.00 0.00 0.00 60 1009.9
20260504234007 26 211 16.1 29.0 0.00 0.00 0.00 60 1010.0
20260504233502 26 229 9.7 33.8 0.00 0.00 0.00 60 1010.0
20260504233000 26 185 12.9 25.7 0.00 0.00 0.00 60 1010.1
20260504232457 26 197 12.9 27.4 0.00 0.00 0.00 60 1010.3
20260504231954 26 182 16.1 22.5 0.00 0.00 0.00 60 1010.2
20260504231450 26 176 14.5 24.1 0.00 0.00 0.00 60 1010.4
20260504230947 26 207 9.7 22.5 0.00 0.00 0.00 61 1010.2
20260504230443 26 181 9.7 14.5 0.00 0.00 0.00 60 1010.5
20260504225943 26 201 14.5 22.5 0.00 0.00 0.00 61 1010.5
20260504225439 26 167 11.3 22.5 0.00 0.00 0.00 60 1010.7
20260504224936 26 176 4.8 16.1 0.00 0.00 0.00 62 1010.7
20260504224432 26 142 6.4 22.5 0.00 0.00 0.00 61 1010.4
20260504223930 26 196 17.7 29.0 0.00 0.00 0.00 60 1010.5
20260504223425 26 214 9.7 20.9 0.00 0.00 0.00 60 1010.7
20260504222921 26 208 9.7 14.5 0.00 0.00 0.00 61 1010.6
20260504222419 26 182 14.5 25.7 0.00 0.00 0.00 60 1010.7
20260504221917 26 190 19.3 29.0 0.00 0.00 0.00 59 1011.0
20260504221413 26 201 17.7 22.5 0.00 0.00 0.00 59 1010.7
20260504220911 26 146 9.7 14.5 0.00 0.00 0.00 61 1010.9
20260504220407 26 145 14.5 25.7 0.00 0.00 0.00 60 1011.2
20260504215904 26 208 8.0 16.1 0.00 0.00 0.00 61 1010.9
20260504215401 26 186 14.5 24.1 0.00 0.00 0.00 60 1011.1
20260504214857 26 206 11.3 17.7 0.00 0.00 0.00 59 1011.0
20260504214354 26 167 6.4 24.1 0.00 0.00 0.00 60 1011.1
20260504213851 26 236 12.9 33.8 0.00 0.00 0.00 58 1011.3
20260504213346 27 213 16.1 25.7 0.00 0.00 0.00 58 1011.2
20260504212844 26 206 6.4 24.1 0.00 0.00 0.00 60 1011.6
20260504212340 26 170 8.0 24.1 0.00 0.00 0.00 59 1011.8
20260504211838 26 177 9.7 20.9 0.00 0.00 0.00 58 1011.6
20260504211334 27 178 19.3 24.1 0.00 0.00 0.00 58 1011.9
20260504210831 26 210 9.7 20.9 0.00 0.00 0.00 60 1011.6
20260504210328 26 220 16.1 22.5 0.00 0.00 0.00 59 1012.2
20260504205825 26 181 6.4 12.9 0.00 0.00 0.00 60 1012.2
20260504205323 26 198 12.9 16.1 0.00 0.00 0.00 59 1012.2
20260504204821 26 176 11.3 24.1 0.00 0.00 0.00 60 1012.3
20260504204319 26 202 19.3 27.4 0.00 0.00 0.00 59 1012.2
20260504203818 26 227 17.7 27.4 0.00 0.00 0.00 59 1012.3
20260504203315 26 240 17.7 29.0 0.00 0.00 0.00 59 1012.7
20260504202810 26 158 20.9 29.0 0.00 0.00 0.00 59 1012.8
20260504202308 26 218 17.7 33.8 0.00 0.00 0.00 59 1012.9
20260504201804 26 181 14.5 29.0 0.00 0.00 0.00 59 1013.0
20260504201302 26 190 9.7 25.7 0.00 0.00 0.00 60 1013.3
20260504200759 25 195 9.7 25.7 0.00 0.00 0.00 61 1013.2
20260504200255 25 218 14.5 22.5 0.00 0.00 0.00 60 1013.2
20260504195752 26 187 19.3 27.4 0.00 0.00 0.00 59 1013.4
20260504195248 26 161 16.1 30.6 0.00 0.00 0.00 59 1013.2
20260504194745 25 212 14.5 27.4 0.00 0.00 0.00 60 1013.5
20260504194241 25 162 17.7 29.0 0.00 0.00 0.00 60 1013.5
20260504193737 25 148 9.7 30.6 0.00 0.00 0.00 60 1013.6
20260504193235 25 213 14.5 22.5 0.00 0.00 0.00 61 1013.6
20260504192733 26 141 11.3 30.6 0.00 0.00 0.00 59 1013.6
20260504192231 26 151 24.1 30.6 0.00 0.00 0.00 59 1013.5
20260504191729 25 179 16.1 33.8 0.00 0.00 0.00 60 1013.7
20260504191226 25 222 19.3 25.7 0.00 0.00 0.00 60 1013.8
20260504190721 25 186 16.1 30.6 0.00 0.00 0.00 60 1013.9
20260504190218 25 194 20.9 38.6 0.00 0.00 0.00 59 1014.1
20260504185714 25 183 9.7 25.7 0.00 0.00 0.00 60 1013.9
20260504185211 25 222 16.1 27.4 0.00 0.00 0.00 61 1014.0
20260504184707 25 180 12.9 38.6 0.00 0.00 0.00 61 1014.1
20260504184203 25 150 12.9 33.8 0.00 0.00 0.00 61 1014.3
20260504183659 25 190 9.7 20.9 0.00 0.00 0.00 60 1014.6
20260504183156 25 149 17.7 24.1 0.00 0.00 0.00 60 1014.4
20260504182654 25 152 4.8 17.7 0.00 0.00 0.00 61 1014.5
20260504182151 25 208 12.9 16.1 0.00 0.00 0.00 61 1014.5
20260504181649 25 232 19.3 24.1 0.00 0.00 0.00 59 1014.6
20260504181146 25 215 8.0 25.7 0.00 0.00 0.00 61 1014.6
20260504180645 25 233 8.0 16.1 0.00 0.00 0.00 60 1014.8
20260504180143 25 226 6.4 16.1 0.00 0.00 0.00 61 1014.8
20260504175640 25 167 12.9 20.9 0.00 0.00 0.00 61 1014.9
20260504175137 25 185 14.5 33.8 0.00 0.00 0.00 60 1015.1
20260504174636 25 178 16.1 24.1 0.00 0.00 0.00 60 1015.2
20260504174131 25 244 6.4 22.5 0.00 0.00 0.00 60 1015.1
20260504173629 25 195 9.7 16.1 0.00 0.00 0.00 62 1015.3
20260504173126 24 166 14.5 22.5 0.00 0.00 0.00 61 1015.3
20260504172622 25 179 14.5 29.0 0.00 0.00 0.00 59 1015.2
20260504172119 24 219 6.4 30.6 0.00 0.00 0.00 62 1015.2